Meteo orario Al Khubar

Oggi, 21 Ottobre, Mercoledi

Tempo Temperatura Precipitazioni Vento Pressione Umidità
00:00 +25°C° 0 mm 2 m/s 758 mm Hg 54%
01:00 +25°C° 0 mm 3 m/s 757 mm Hg 52%
02:00 +25°C° 0 mm 4 m/s 757 mm Hg 49%
03:00 +23°C° 0 mm 4 m/s 757 mm Hg 47%
04:00 +23°C° 0 mm 4 m/s 757 mm Hg 44%
05:00 +22°C° 0 mm 4 m/s 758 mm Hg 40%
06:00 +22°C° 0 mm 4 m/s 758 mm Hg 36%
07:00 +25°C° 0 mm 3 m/s 758 mm Hg 30%
08:00 +27°C° 0 mm 3 m/s 759 mm Hg 25%
09:00 +29°C° 0 mm 3 m/s 759 mm Hg 19%
10:00 +31°C° 0 mm 2 m/s 759 mm Hg 17%
11:00 +32°C° 0 mm 2 m/s 758 mm Hg 14%
12:00 +35°C° 0 mm 2 m/s 758 mm Hg 12%
13:00 +35°C° 0 mm 2 m/s 758 mm Hg 14%
14:00 +35°C° 0 mm 2 m/s 757 mm Hg 17%
15:00 +35°C° 0 mm 3 m/s 757 mm Hg 20%
16:00 +33°C° 0 mm 3 m/s 757 mm Hg 29%
17:00 +30°C° 0 mm 3 m/s 758 mm Hg 38%
18:00 +28°C° 0 mm 3 m/s 758 mm Hg 48%
19:00 +28°C° 0 mm 3 m/s 758 mm Hg 52%
20:00 +27°C° 0 mm 2 m/s 758 mm Hg 57%
21:00 +26°C° 0 mm 2 m/s 758 mm Hg 62%
22:00 +26°C° 0 mm 2 m/s 758 mm Hg 62%
23:00 +26°C° 0 mm 2 m/s 758 mm Hg 63%

Domani, 22 Ottobre, Giovedi

Tempo Temperatura Precipitazioni Vento Pressione Umidità
00:00 +26°C° 0 mm 2 m/s 758 mm Hg 63%
01:00 +25°C° 0 mm 3 m/s 758 mm Hg 63%
02:00 +25°C° 0 mm 3 m/s 757 mm Hg 63%
03:00 +25°C° 0 mm 4 m/s 757 mm Hg 63%
04:00 +23°C° 0 mm 4 m/s 758 mm Hg 58%
05:00 +23°C° 0 mm 5 m/s 758 mm Hg 53%
06:00 +22°C° 0 mm 5 m/s 758 mm Hg 48%
07:00 +26°C° 0 mm 5 m/s 758 mm Hg 40%
08:00 +28°C° 0 mm 5 m/s 758 mm Hg 32%
09:00 +30°C° 0 mm 5 m/s 758 mm Hg 23%
10:00 +33°C° 0 mm 4 m/s 758 mm Hg 20%
11:00 +35°C° 0 mm 4 m/s 758 mm Hg 17%
12:00 +37°C° 0 mm 3 m/s 757 mm Hg 14%
13:00 +37°C° 0 mm 4 m/s 757 mm Hg 16%
14:00 +36°C° 0 mm 4 m/s 756 mm Hg 18%
15:00 +36°C° 0 mm 4 m/s 755 mm Hg 21%
16:00 +34°C° 0 mm 4 m/s 756 mm Hg 29%
17:00 +32°C° 0 mm 4 m/s 756 mm Hg 37%
18:00 +29°C° 0 mm 3 m/s 756 mm Hg 46%
19:00 +28°C° 0 mm 3 m/s 756 mm Hg 51%
20:00 +27°C° 0 mm 2 m/s 756 mm Hg 56%
21:00 +26°C° 0 mm 1 m/s 756 mm Hg 62%
22:00 +26°C° 0 mm 2 m/s 756 mm Hg 58%
23:00 +25°C° 0 mm 2 m/s 756 mm Hg 54%

Dopodomani, 23 Ottobre, Venerdi

Tempo Temperatura Precipitazioni Vento Pressione Umidità
00:00 +25°C° 0 mm 2 m/s 756 mm Hg 51%
01:00 +25°C° 0 mm 3 m/s 756 mm Hg 51%
02:00 +25°C° 0 mm 4 m/s 756 mm Hg 51%
03:00 +23°C° 0 mm 4 m/s 756 mm Hg 51%
04:00 +23°C° 0 mm 4 m/s 756 mm Hg 48%
05:00 +23°C° 0 mm 4 m/s 756 mm Hg 44%
06:00 +23°C° 0 mm 4 m/s 757 mm Hg 41%
07:00 +26°C° 0 mm 4 m/s 757 mm Hg 35%
08:00 +28°C° 0 mm 4 m/s 757 mm Hg 30%
09:00 +30°C° 0 mm 3 m/s 757 mm Hg 25%
10:00 +33°C° 0 mm 3 m/s 757 mm Hg 22%
11:00 +34°C° 0 mm 3 m/s 756 mm Hg 19%
12:00 +36°C° 0 mm 2 m/s 756 mm Hg 16%
13:00 +36°C° 0 mm 2 m/s 756 mm Hg 18%
14:00 +35°C° 0 mm 3 m/s 755 mm Hg 20%
15:00 +35°C° 0 mm 3 m/s 755 mm Hg 23%
16:00 +33°C° 0 mm 3 m/s 755 mm Hg 33%
17:00 +30°C° 0 mm 3 m/s 756 mm Hg 43%
18:00 +28°C° 0 mm 2 m/s 756 mm Hg 53%
19:00 +27°C° 0 mm 2 m/s 756 mm Hg 55%
20:00 +27°C° 0 mm 2 m/s 757 mm Hg 57%
21:00 +26°C° 0 mm 1 m/s 757 mm Hg 59%
22:00 +26°C° 0 mm 1 m/s 757 mm Hg 61%
23:00 +25°C° 0 mm 1 m/s 757 mm Hg 63%

24 Ottobre, Sabato

Tempo Temperatura Precipitazioni Vento Pressione Umidità
00:00 +25°C° 0 mm 1 m/s 756 mm Hg 64%
01:00 +24°C° 0 mm 1 m/s 756 mm Hg 65%
02:00 +24°C° 0 mm 1 m/s 756 mm Hg 65%
03:00 +24°C° 0 mm 1 m/s 756 mm Hg 65%
04:00 +23°C° 0 mm 1 m/s 756 mm Hg 63%
05:00 +23°C° 0 mm 2 m/s 757 mm Hg 62%
06:00 +23°C° 0 mm 2 m/s 757 mm Hg 60%
07:00 +25°C° 0 mm 2 m/s 757 mm Hg 52%
08:00 +27°C° 0 mm 2 m/s 758 mm Hg 45%
09:00 +29°C° 0 mm 1 m/s 758 mm Hg 38%
10:00 +31°C° 0 mm 2 m/s 758 mm Hg 33%
11:00 +32°C° 0 mm 2 m/s 758 mm Hg 28%
12:00 +35°C° 0 mm 2 m/s 757 mm Hg 23%
13:00 +35°C° 0 mm 2 m/s 757 mm Hg 25%
14:00 +34°C° 0 mm 3 m/s 757 mm Hg 26%
15:00 +34°C° 0 mm 3 m/s 757 mm Hg 28%
16:00 +33°C° 0 mm 3 m/s 757 mm Hg 37%
17:00 +30°C° 0 mm 4 m/s 757 mm Hg 45%
18:00 +28°C° 0 mm 4 m/s 757 mm Hg 54%
19:00 +28°C° 0 mm 4 m/s 758 mm Hg 54%
20:00 +28°C° 0 mm 4 m/s 758 mm Hg 54%
21:00 +28°C° 0 mm 4 m/s 758 mm Hg 54%
22:00 +28°C° 0 mm 4 m/s 758 mm Hg 56%
23:00 +28°C° 0 mm 3 m/s 758 mm Hg 58%

25 Ottobre, Domenica

Tempo Temperatura Precipitazioni Vento Pressione Umidità
00:00 +27°C° 0 mm 3 m/s 758 mm Hg 60%
01:00 +26°C° 0 mm 2 m/s 758 mm Hg 63%
02:00 +26°C° 0 mm 2 m/s 758 mm Hg 65%
03:00 +25°C° 0 mm 1 m/s 758 mm Hg 68%
04:00 +24°C° 0 mm 1 m/s 758 mm Hg 68%
05:00 +24°C° 0 mm 1 m/s 758 mm Hg 68%
06:00 +24°C° 0 mm 1 m/s 758 mm Hg 68%
07:00 +26°C° 0 mm 1 m/s 759 mm Hg 59%
08:00 +29°C° 0 mm 1 m/s 759 mm Hg 50%
09:00 +31°C° 0 mm 1 m/s 759 mm Hg 40%
10:00 +32°C° 0 mm 2 m/s 759 mm Hg 36%
11:00 +34°C° 0 mm 2 m/s 759 mm Hg 31%
12:00 +35°C° 0 mm 2 m/s 758 mm Hg 26%
13:00 +35°C° 0 mm 2 m/s 758 mm Hg 25%
14:00 +35°C° 0 mm 2 m/s 757 mm Hg 24%
15:00 +35°C° 0 mm 3 m/s 757 mm Hg 23%
16:00 +33°C° 0 mm 3 m/s 757 mm Hg 33%
17:00 +32°C° 0 mm 4 m/s 757 mm Hg 42%
18:00 +29°C° 0 mm 5 m/s 758 mm Hg 52%
19:00 +29°C° 0 mm 4 m/s 758 mm Hg 54%
20:00 +29°C° 0 mm 4 m/s 758 mm Hg 56%
21:00 +29°C° 0 mm 4 m/s 758 mm Hg 58%
22:00 +28°C° 0 mm 4 m/s 758 mm Hg 59%
23:00 +28°C° 0 mm 3 m/s 758 mm Hg 60%

26 Ottobre, Lunedi

Tempo Temperatura Precipitazioni Vento Pressione Umidità
00:00 +27°C° 0 mm 3 m/s 758 mm Hg 61%
01:00 +27°C° 0 mm 3 m/s 758 mm Hg 64%
02:00 +26°C° 0 mm 2 m/s 758 mm Hg 66%
03:00 +25°C° 0 mm 2 m/s 758 mm Hg 69%
04:00 +25°C° 0 mm 1 m/s 758 mm Hg 69%
05:00 +25°C° 0 mm 1 m/s 758 mm Hg 68%
06:00 +25°C° 0 mm 1 m/s 758 mm Hg 68%
07:00 +27°C° 0 mm 2 m/s 759 mm Hg 59%
08:00 +29°C° 0 mm 2 m/s 759 mm Hg 50%
09:00 +31°C° 0 mm 2 m/s 759 mm Hg 41%
10:00 +32°C° 0 mm 2 m/s 759 mm Hg 36%
11:00 +34°C° 0 mm 2 m/s 759 mm Hg 30%
12:00 +36°C° 0 mm 2 m/s 758 mm Hg 25%
13:00 +35°C° 0 mm 2 m/s 758 mm Hg 27%
14:00 +35°C° 0 mm 3 m/s 758 mm Hg 28%
15:00 +35°C° 0 mm 4 m/s 757 mm Hg 30%
16:00 +33°C° 0 mm 4 m/s 757 mm Hg 39%
17:00 +32°C° 0 mm 4 m/s 758 mm Hg 48%
18:00 +29°C° 0 mm 4 m/s 758 mm Hg 56%
19:00 +29°C° 0 mm 4 m/s 758 mm Hg 59%
20:00 +28°C° 0 mm 4 m/s 758 mm Hg 62%
21:00 +28°C° 0 mm 4 m/s 758 mm Hg 65%
22:00 +28°C° 0 mm 3 m/s 758 mm Hg 67%
23:00 +27°C° 0 mm 2 m/s 758 mm Hg 69%

27 Ottobre, Martedi

Tempo Temperatura Precipitazioni Vento Pressione Umidità
00:00 +26°C° 0 mm 1 m/s 758 mm Hg 71%
01:00 +26°C° 0 mm 2 m/s 758 mm Hg 71%
02:00 +26°C° 0 mm 2 m/s 758 mm Hg 72%
03:00 +26°C° 0 mm 2 m/s 757 mm Hg 72%
04:00 +25°C° 0 mm 3 m/s 758 mm Hg 72%
05:00 +25°C° 0 mm 3 m/s 758 mm Hg 71%
06:00 +24°C° 0 mm 3 m/s 758 mm Hg 71%
07:00 +26°C° 0 mm 3 m/s 759 mm Hg 61%
08:00 +28°C° 0 mm 3 m/s 759 mm Hg 52%
09:00 +30°C° 0 mm 3 m/s 759 mm Hg 43%
10:00 +31°C° 0 mm 3 m/s 759 mm Hg 37%
11:00 +34°C° 0 mm 3 m/s 759 mm Hg 31%
12:00 +35°C° 0 mm 3 m/s 758 mm Hg 25%
13:00 +35°C° 0 mm 4 m/s 758 mm Hg 28%
14:00 +34°C° 0 mm 4 m/s 758 mm Hg 32%
15:00 +34°C° 0 mm 5 m/s 758 mm Hg 35%
16:00 +32°C° 0 mm 5 m/s 758 mm Hg 43%
17:00 +30°C° 0 mm 5 m/s 758 mm Hg 50%
18:00 +28°C° 0 mm 4 m/s 758 mm Hg 57%
19:00 +28°C° 0 mm 4 m/s 758 mm Hg 60%
20:00 +27°C° 0 mm 3 m/s 758 mm Hg 62%
21:00 +27°C° 0 mm 3 m/s 759 mm Hg 65%
22:00 +26°C° 0 mm 2 m/s 759 mm Hg 66%
23:00 +26°C° 0 mm 2 m/s 758 mm Hg 67%
Mostrare altro

Abbiamo bisogno del tuo consenso

Meteoprog e i nostri fornitori di servizi possono memorizzare e accedere a dati personali come cookie, identificatori di dispositivi o altre tecnologie simili sul tuo dispositivo e possono elaborare tali dati per personalizzare i contenuti e gli annunci, nonché fornire funzionalità dei social media e analizzarne il traffico.

  • Archiviare e/o accedere alle informazioni sul tuo dispositivo

    Cookie, identificatori di dispositivi o altre informazioni possono essere memorizzati o resi accessibili sul tuo dispositivo per le finalità sopra indicate.

  • Annunci e contenuti personalizzati, misurazione di annunci e contenuti, approfondimenti sul pubblico e sviluppo di prodotti

    Gli annunci e i contenuti possono essere personalizzati in base a un profilo. È possibile aggiungere più dati per personalizzare meglio annunci e contenuti. È possibile misurare il rendimento degli annunci e dei contenuti. È possibile ricavare informazioni sul pubblico che ha visto gli annunci e i contenuti. Tali dati possono essere utilizzati per sviluppare o migliorare l'esperienza, i sistemi e il software dell'utente.

Cliccando su “Accetto”, acconsenti all'uso di cookie, identificatori di dispositivo, web beacon o altre tecnologie simili. Puoi modificare le impostazioni nel browser del tuo dispositivo.

Per determinati scopi, è possibile fare affidamento su interessi legali, piuttosto che sul consenso. Puoi approfondire questo argomento consultando la nostra Informativa sulla privacy e sui cookie.